Location: Amherst
(42.3800°N, 72.5240°W)
Time: 10:44:45
(UTC-04:00)

ISS - Pass Details

Date: 23 May 2021
Orbit: 417 x 422 km, 51.6° (Epoch: 14 June)

Event Time Altitude Azimuth Distance (km) Brightness Sun altitude
Rises 22:23:32 0° 304° (NW) 2,367 1.4 -18.7°
Reaches altitude 10° 22:26:01 10° 323° (NW) 1,503 0.3 -19.0°
Maximum altitude 22:28:35 20° 12° (NNE) 1,046 -1.3 -19.2°
Enters shadow 22:31:04 10° 61° (ENE) 1,479 -1.0 -19.5°
